Cutler
DateTemperatureDew Point
08/30 - 05:30 PM92.7°58.7°
08/30 - 05:15 PM93.4°58.2°
08/30 - 05:00 PM93.8°58.8°
08/30 - 04:45 PM94.5°59.2°
08/30 - 04:30 PM94.7°60.3°
08/30 - 04:15 PM94.7°60.6°
08/30 - 04:00 PM95.1°60.9°
08/30 - 03:45 PM95.1°61.6°
08/30 - 03:30 PM94.5°61.9°
08/30 - 03:15 PM94.2°60.9°
08/30 - 03:00 PM93.7°60.5°
08/30 - 02:45 PM93.6°60.3°
08/30 - 02:30 PM93.1°60.3°
08/30 - 02:15 PM91.6°58.5°
08/30 - 02:00 PM90.8°57.9°
08/30 - 01:45 PM89.8°58.4°
08/30 - 01:30 PM88.7°58.3°
08/30 - 01:15 PM88.2°58.1°
08/30 - 01:00 PM87.1°57.8°
08/30 - 12:45 PM86.5°57.6°
08/30 - 12:30 PM86.1°57.2°
08/30 - 12:15 PM85.6°57.1°
08/30 - 12:00 PM85.0°56.9°
08/30 - 11:45 AM83.5°57.0°
08/30 - 11:30 AM82.6°56.7°
08/30 - 11:15 AM82.1°57.0°
08/30 - 11:00 AM81.7°57.6°
08/30 - 10:45 AM80.6°57.6°
08/30 - 10:30 AM79.1°57.9°
08/30 - 10:15 AM77.5°58.7°
08/30 - 10:00 AM76.0°58.2°
08/30 - 09:45 AM74.5°57.8°
08/30 - 09:30 AM73.4°57.7°
08/30 - 09:15 AM72.4°57.8°
08/30 - 09:00 AM71.3°57.8°
08/30 - 08:45 AM69.5°57.3°
08/30 - 08:30 AM66.8°57.6°
08/30 - 08:15 AM64.9°56.9°
08/30 - 08:00 AM61.9°58.1°
08/30 - 07:45 AM60.2°57.9°
08/30 - 07:30 AM59.0°56.7°
08/30 - 07:15 AM58.2°55.7°
08/30 - 07:00 AM57.5°54.7°
08/30 - 06:45 AM57.3°54.0°
08/30 - 06:30 AM57.3°53.6°
08/30 - 06:15 AM57.6°53.3°
08/30 - 06:00 AM57.9°53.4°
08/30 - 05:45 AM58.3°53.5°
08/30 - 05:30 AM58.8°53.5°
08/30 - 05:15 AM59.5°53.1°
08/30 - 05:00 AM60.2°52.3°
08/30 - 04:45 AM61.0°52.1°
08/30 - 04:30 AM61.8°51.6°
08/30 - 04:15 AM62.0°51.3°
08/30 - 04:00 AM61.9°50.3°
08/30 - 03:45 AM61.0°51.8°
08/30 - 03:30 AM60.8°53.2°
08/30 - 03:15 AM60.7°54.0°
08/30 - 03:00 AM61.0°54.8°
08/30 - 02:45 AM61.5°55.7°
08/30 - 02:30 AM61.5°55.4°
08/30 - 02:15 AM61.5°56.5°
08/30 - 02:00 AM61.8°57.2°
08/30 - 01:45 AM61.7°57.4°
08/30 - 01:30 AM61.9°58.0°
08/30 - 01:15 AM62.2°58.3°
08/30 - 01:00 AM63.1°59.0°
08/30 - 12:45 AM63.6°59.7°
08/30 - 12:30 AM64.1°60.3°
08/30 - 12:15 AM64.3°60.3°
08/30 - 12:00 AM64.9°60.8°
08/29 - 11:45 PM65.5°61.2°
08/29 - 11:30 PM65.8°61.3°
08/29 - 11:15 PM66.1°61.6°
08/29 - 11:00 PM66.8°62.2°
08/29 - 10:45 PM67.7°62.4°
08/29 - 10:30 PM68.5°62.7°
08/29 - 10:15 PM69.0°62.4°
08/29 - 10:00 PM69.5°62.2°
08/29 - 09:45 PM70.2°63.0°
08/29 - 09:30 PM69.9°63.0°
08/29 - 09:15 PM71.3°64.3°
08/29 - 09:00 PM72.4°65.3°
08/29 - 08:45 PM73.2°65.4°
08/29 - 08:30 PM74.0°65.6°
08/29 - 08:15 PM75.0°66.1°
08/29 - 08:00 PM76.3°67.2°
08/29 - 07:45 PM77.7°67.5°
08/29 - 07:30 PM79.5°68.4°
08/29 - 07:15 PM81.7°70.6°
08/29 - 07:00 PM83.6°71.3°
08/29 - 06:45 PM85.5°70.0°
08/29 - 06:30 PM87.7°68.6°
08/29 - 06:15 PM89.8°66.6°
08/29 - 06:00 PM91.7°64.7°
08/29 - 05:45 PM92.9°62.6°
08/29 - 05:30 PM93.9°63.2°
08/29 - 05:15 PM94.4°63.4°
08/29 - 05:00 PM94.2°63.4°
08/29 - 04:45 PM93.9°63.7°
08/29 - 04:30 PM93.2°62.6°
08/29 - 04:15 PM93.6°63.4°
08/29 - 04:00 PM93.6°63.1°
08/29 - 03:45 PM94.1°63.2°
08/29 - 03:30 PM93.8°63.6°
08/29 - 03:15 PM93.3°64.2°
08/29 - 03:00 PM93.6°63.8°
08/29 - 02:45 PM94.0°64.0°
08/29 - 02:30 PM92.5°64.1°
08/29 - 02:15 PM91.0°63.0°
08/29 - 02:00 PM90.7°63.0°
08/29 - 01:45 PM91.1°63.1°
08/29 - 01:30 PM90.4°63.3°
08/29 - 01:15 PM89.3°63.4°
08/29 - 01:00 PM88.2°63.6°
08/29 - 12:45 PM88.3°63.9°
08/29 - 12:30 PM86.6°63.5°
08/29 - 12:15 PM84.7°63.7°
08/29 - 12:00 PM82.4°63.9°
08/29 - 11:45 AM82.7°63.7°
08/29 - 11:30 AM82.4°64.5°
08/29 - 11:15 AM81.8°64.3°
08/29 - 11:00 AM80.4°63.9°
08/29 - 10:45 AM79.9°64.0°
08/29 - 10:30 AM80.0°64.6°
08/29 - 10:15 AM78.6°64.4°
08/29 - 10:00 AM77.8°64.0°
08/29 - 09:45 AM77.4°64.4°
08/29 - 09:30 AM76.5°63.8°
08/29 - 09:15 AM75.8°64.4°
08/29 - 09:00 AM74.6°64.7°
08/29 - 08:45 AM72.9°64.7°
08/29 - 08:30 AM71.7°64.5°
08/29 - 08:15 AM69.8°63.8°
08/29 - 08:00 AM68.0°63.6°
08/29 - 07:45 AM66.2°62.8°
08/29 - 07:30 AM64.7°62.6°
08/29 - 07:15 AM63.8°61.8°
08/29 - 07:00 AM63.3°61.0°
08/29 - 06:45 AM63.0°60.5°
08/29 - 06:30 AM63.0°60.4°
08/29 - 06:15 AM63.1°60.5°
08/29 - 06:00 AM63.1°60.5°
08/29 - 05:45 AM62.7°59.6°
08/29 - 05:30 AM63.3°59.3°
08/29 - 05:15 AM63.3°59.2°
08/29 - 05:00 AM64.3°60.2°
08/29 - 04:45 AM64.5°60.2°
08/29 - 04:30 AM64.5°60.2°
08/29 - 04:15 AM64.4°59.9°
08/29 - 04:00 AM64.5°59.4°
08/29 - 03:45 AM64.8°58.8°
08/29 - 03:30 AM65.1°59.1°
08/29 - 03:15 AM65.5°59.9°
08/29 - 03:00 AM66.1°61.6°
08/29 - 02:45 AM66.7°62.2°
08/29 - 02:30 AM67.0°62.8°
08/29 - 02:15 AM67.3°63.0°
08/29 - 02:00 AM67.7°63.3°
08/29 - 01:45 AM68.3°63.5°
08/29 - 01:30 AM68.8°63.5°
08/29 - 01:15 AM69.2°63.5°
08/29 - 01:00 AM69.6°63.4°
08/29 - 12:45 AM69.8°63.1°
08/29 - 12:30 AM69.3°62.3°
08/29 - 12:15 AM69.6°62.1°
08/29 - 12:00 AM70.0°62.7°
08/28 - 11:45 PM70.2°62.9°
08/28 - 11:30 PM70.2°63.0°
08/28 - 11:15 PM70.2°62.5°
08/28 - 11:00 PM70.8°62.9°
08/28 - 10:45 PM71.2°63.4°
08/28 - 10:30 PM71.9°64.2°
08/28 - 10:15 PM72.6°64.6°
08/28 - 10:00 PM73.0°64.3°
08/28 - 09:45 PM73.2°64.3°
08/28 - 09:30 PM73.3°64.1°
08/28 - 09:15 PM74.0°64.9°
08/28 - 09:00 PM74.6°64.9°
08/28 - 08:45 PM75.1°64.4°
08/28 - 08:30 PM75.3°63.8°
08/28 - 08:15 PM75.7°63.8°
08/28 - 08:00 PM76.4°63.6°
08/28 - 07:45 PM77.2°63.8°
08/28 - 07:30 PM78.2°63.3°
08/28 - 07:15 PM79.3°63.3°
08/28 - 07:00 PM79.9°62.7°
08/28 - 06:45 PM80.6°62.6°
08/28 - 06:30 PM81.4°62.0°
08/28 - 06:15 PM82.2°62.3°
08/28 - 06:00 PM82.7°61.0°